Location: Augustenthal
(51.7167°N, 10.2833°E)
Time: 20:40:59
(UTC+00:00)

Cosmos 1066 Rocket - Pass Details

Date: 18 May 2021
Orbit: 798 x 895 km, 81.2° (Epoch: 21 June)

Event Time Altitude Azimuth Distance (km) Brightness Sun altitude
Exits shadow 22:55:45 30° 196° (SSW) 1,495 5.0 -18.4°
Maximum altitude 22:58:41 84° 282° (WNW) 863 4.2 -18.4°
Drops below altitude 10° 23:04:17 10° 12° (NNE) 2,457 7.8 -18.5°
Sets 23:06:40 0° 13° (NNE) 3,381 8.8 -18.5°
